Location: Sebastopol
(38.4021°N, 122.8239°W)
Time: 15:40:39
(UTC+00:00)

Cosmos 1484 Rocket - Pass Details

Date: 29 October 2020
Orbit: 504 x 560 km, 97.4° (Epoch: 30 November)

Event Time Altitude Azimuth Distance (km) Brightness Sun altitude
Rises 13:15:30 0° 3° (N) 2,682 6.3 -16.1°
Reaches altitude 10° 13:17:43 10° 355° (N) 1,777 5.3 -15.7°
Maximum altitude 13:21:16 37° 287° (WNW) 818 3.2 -15.0°
Drops below altitude 10° 13:24:45 10° 219° (SW) 1,736 5.1 -14.3°
Sets 13:26:54 0° 211° (SSW) 2,610 6.0 -13.9°
